When you browse on this site, cookies collect data to enhance your experience and personalize the content and advertising you see.
Visit our Privacy Policy to learn more. By continuing to use the site, you agree to this use of cookies and data.
  • In Netherlands
  • List of Countries
  • For 7 days
  • Water Temperature
  • Satellite Maps
  • Weather Map
  • Weather Widgets
  • user-avatar
    Login

    Hourly Weather Suhotskoe

    Today, 19 July, Friday

    Time Temperature Precipitation Wind Pressure Humidity
    00:00 +23°C° 0.5 mm 2 mps 742 mmHg 71%
    01:00 +23°C° 0.4 mm 2 mps 742 mmHg 76%
    02:00 +21°C° 0.4 mm 2 mps 742 mmHg 81%
    03:00 +20°C° 0.4 mm 2 mps 742 mmHg 86%
    04:00 +20°C° 0.5 mm 2 mps 742 mmHg 87%
    05:00 +21°C° 0.5 mm 2 mps 743 mmHg 88%
    06:00 +21°C° 0.5 mm 3 mps 743 mmHg 89%
    07:00 +22°C° 0.3 mm 3 mps 743 mmHg 83%
    08:00 +24°C° 0.3 mm 3 mps 743 mmHg 77%
    09:00 +25°C° 0.3 mm 3 mps 744 mmHg 72%
    10:00 +27°C° 0 mm 3 mps 744 mmHg 65%
    11:00 +28°C° 0 mm 2 mps 744 mmHg 57%
    12:00 +30°C° 0 mm 2 mps 744 mmHg 50%
    13:00 +30°C° 0 mm 1 mps 744 mmHg 48%
    14:00 +31°C° 0 mm 1 mps 744 mmHg 46%
    15:00 +31°C° 0 mm 1 mps 743 mmHg 44%
    16:00 +31°C° 0.1 mm 1 mps 744 mmHg 48%
    17:00 +30°C° 0.1 mm 1 mps 744 mmHg 51%
    18:00 +30°C° 0.1 mm 1 mps 744 mmHg 54%
    19:00 +28°C° 0.2 mm 2 mps 744 mmHg 58%
    20:00 +27°C° 0.2 mm 2 mps 745 mmHg 63%
    21:00 +26°C° 0.2 mm 2 mps 745 mmHg 67%
    22:00 +25°C° 0 mm 3 mps 745 mmHg 71%
    23:00 +23°C° 0 mm 4 mps 745 mmHg 75%

    Tomorrow, 20 July, Saturday

    Time Temperature Precipitation Wind Pressure Humidity
    00:00 +23°C° 0 mm 5 mps 746 mmHg 79%
    01:00 +22°C° 0 mm 4 mps 746 mmHg 81%
    02:00 +22°C° 0 mm 4 mps 746 mmHg 83%
    03:00 +21°C° 0 mm 3 mps 746 mmHg 86%
    04:00 +21°C° 0 mm 3 mps 746 mmHg 86%
    05:00 +21°C° 0 mm 3 mps 747 mmHg 86%
    06:00 +21°C° 0 mm 3 mps 747 mmHg 86%
    07:00 +21°C° 0 mm 3 mps 747 mmHg 85%
    08:00 +23°C° 0 mm 2 mps 747 mmHg 83%
    09:00 +23°C° 0 mm 2 mps 747 mmHg 82%
    10:00 +24°C° 0 mm 2 mps 747 mmHg 78%
    11:00 +25°C° 0 mm 2 mps 748 mmHg 73%
    12:00 +25°C° 0 mm 2 mps 748 mmHg 69%
    13:00 +27°C° 0 mm 2 mps 747 mmHg 64%
    14:00 +28°C° 0 mm 2 mps 747 mmHg 60%
    15:00 +29°C° 0 mm 2 mps 747 mmHg 55%
    16:00 +29°C° 0 mm 1 mps 747 mmHg 55%
    17:00 +29°C° 0 mm 1 mps 747 mmHg 56%
    18:00 +29°C° 0 mm 1 mps 747 mmHg 57%
    19:00 +28°C° 0 mm 1 mps 747 mmHg 60%
    20:00 +27°C° 0 mm 1 mps 747 mmHg 63%
    21:00 +26°C° 0 mm 1 mps 748 mmHg 67%
    22:00 +25°C° 0 mm 1 mps 748 mmHg 67%
    23:00 +25°C° 0 mm 1 mps 748 mmHg 68%

    Day after tomorrow, 21 July, Sunday

    Time Temperature Precipitation Wind Pressure Humidity
    00:00 +25°C° 0 mm 2 mps 748 mmHg 69%
    01:00 +24°C° 0 mm 1 mps 747 mmHg 72%
    02:00 +24°C° 0 mm 1 mps 747 mmHg 74%
    03:00 +23°C° 0 mm 1 mps 747 mmHg 77%
    04:00 +23°C° 0 mm 1 mps 747 mmHg 77%
    05:00 +24°C° 0 mm 1 mps 747 mmHg 77%
    06:00 +24°C° 0 mm 1 mps 747 mmHg 76%
    07:00 +26°C° 0 mm 2 mps 746 mmHg 70%
    08:00 +27°C° 0 mm 3 mps 746 mmHg 64%
    09:00 +29°C° 0 mm 4 mps 746 mmHg 57%
    10:00 +30°C° 0 mm 4 mps 746 mmHg 52%
    11:00 +33°C° 0 mm 4 mps 746 mmHg 47%
    12:00 +34°C° 0 mm 5 mps 745 mmHg 41%
    13:00 +35°C° 0 mm 5 mps 745 mmHg 39%
    14:00 +36°C° 0 mm 5 mps 745 mmHg 36%
    15:00 +36°C° 0 mm 5 mps 745 mmHg 34%
    16:00 +35°C° 0 mm 5 mps 745 mmHg 37%
    17:00 +34°C° 0 mm 4 mps 745 mmHg 40%
    18:00 +33°C° 0 mm 4 mps 745 mmHg 44%
    19:00 +32°C° 0 mm 4 mps 745 mmHg 45%
    20:00 +29°C° 0 mm 4 mps 746 mmHg 47%
    21:00 +27°C° 0 mm 4 mps 746 mmHg 48%
    22:00 +26°C° 0 mm 4 mps 746 mmHg 51%
    23:00 +26°C° 0 mm 3 mps 745 mmHg 54%

    22 July, Monday

    Time Temperature Precipitation Wind Pressure Humidity
    00:00 +25°C° 0 mm 3 mps 745 mmHg 57%
    01:00 +24°C° 0.8 mm 2 mps 745 mmHg 63%
    02:00 +24°C° 0.8 mm 1 mps 745 mmHg 69%
    03:00 +23°C° 0.8 mm 1 mps 745 mmHg 75%
    04:00 +24°C° 0.2 mm 1 mps 745 mmHg 77%
    05:00 +24°C° 0.2 mm 1 mps 745 mmHg 78%
    06:00 +24°C° 0.2 mm 1 mps 745 mmHg 80%
    07:00 +25°C° 0 mm 1 mps 745 mmHg 76%
    08:00 +26°C° 0 mm 1 mps 745 mmHg 71%
    09:00 +26°C° 0 mm 1 mps 745 mmHg 67%
    10:00 +28°C° 0 mm 2 mps 745 mmHg 60%
    11:00 +30°C° 0 mm 3 mps 745 mmHg 54%
    12:00 +33°C° 0 mm 3 mps 745 mmHg 47%
    13:00 +33°C° 0.1 mm 3 mps 745 mmHg 48%
    14:00 +33°C° 0.1 mm 4 mps 745 mmHg 48%
    15:00 +32°C° 0.1 mm 4 mps 745 mmHg 49%
    16:00 +30°C° 0.1 mm 3 mps 745 mmHg 55%
    17:00 +28°C° 0.1 mm 3 mps 745 mmHg 62%
    18:00 +26°C° 0.1 mm 2 mps 745 mmHg 69%
    19:00 +25°C° 0.1 mm 2 mps 745 mmHg 71%
    20:00 +25°C° 0.1 mm 2 mps 745 mmHg 73%
    21:00 +24°C° 0.1 mm 1 mps 746 mmHg 75%
    22:00 +24°C° 0 mm 1 mps 745 mmHg 77%
    23:00 +21°C° 0 mm 0 mps 745 mmHg 79%

    23 July, Tuesday

    Time Temperature Precipitation Wind Pressure Humidity
    00:00 +21°C° 0 mm 0 mps 745 mmHg 80%
    01:00 +21°C° 0 mm 0 mps 745 mmHg 81%
    02:00 +20°C° 0 mm 0 mps 744 mmHg 83%
    03:00 +20°C° 0 mm 0 mps 744 mmHg 84%
    04:00 +20°C° 0 mm 0 mps 744 mmHg 82%
    05:00 +20°C° 0 mm 0 mps 744 mmHg 80%
    06:00 +21°C° 0 mm 0 mps 744 mmHg 78%
    07:00 +24°C° 0 mm 1 mps 744 mmHg 71%
    08:00 +26°C° 0 mm 1 mps 743 mmHg 63%
    09:00 +28°C° 0 mm 2 mps 743 mmHg 55%
    10:00 +28°C° 0.2 mm 2 mps 743 mmHg 53%
    11:00 +29°C° 0.2 mm 3 mps 743 mmHg 51%
    12:00 +30°C° 0.2 mm 3 mps 743 mmHg 49%
    13:00 +30°C° 0.3 mm 3 mps 742 mmHg 49%
    14:00 +30°C° 0.3 mm 3 mps 742 mmHg 49%
    15:00 +32°C° 0.3 mm 4 mps 742 mmHg 49%
    16:00 +30°C° 0.4 mm 3 mps 742 mmHg 53%
    17:00 +29°C° 0.4 mm 2 mps 742 mmHg 56%
    18:00 +29°C° 0.4 mm 2 mps 741 mmHg 59%
    19:00 +27°C° 0.7 mm 2 mps 741 mmHg 65%
    20:00 +26°C° 0.7 mm 2 mps 742 mmHg 71%
    21:00 +24°C° 0.7 mm 1 mps 742 mmHg 77%
    22:00 +24°C° 0.3 mm 1 mps 742 mmHg 78%
    23:00 +24°C° 0.3 mm 1 mps 741 mmHg 78%

    24 July, Wednesday

    Time Temperature Precipitation Wind Pressure Humidity
    00:00 +23°C° 0.3 mm 1 mps 741 mmHg 79%
    01:00 +23°C° 0 mm 1 mps 741 mmHg 80%
    02:00 +20°C° 0 mm 0 mps 741 mmHg 81%
    03:00 +20°C° 0 mm 0 mps 741 mmHg 82%
    04:00 +21°C° 0 mm 0 mps 741 mmHg 81%
    05:00 +21°C° 0 mm 0 mps 741 mmHg 80%
    06:00 +22°C° 0 mm 0 mps 741 mmHg 79%
    07:00 +23°C° 0 mm 0 mps 741 mmHg 71%
    08:00 +27°C° 0 mm 1 mps 740 mmHg 62%
    09:00 +29°C° 0 mm 1 mps 740 mmHg 54%
    10:00 +30°C° 0 mm 2 mps 740 mmHg 49%
    11:00 +32°C° 0 mm 2 mps 740 mmHg 44%
    12:00 +34°C° 0 mm 3 mps 740 mmHg 39%
    13:00 +35°C° 0 mm 3 mps 740 mmHg 37%
    14:00 +35°C° 0 mm 3 mps 740 mmHg 35%
    15:00 +36°C° 0 mm 3 mps 740 mmHg 34%
    16:00 +35°C° 0 mm 3 mps 740 mmHg 36%
    17:00 +35°C° 0 mm 3 mps 740 mmHg 39%
    18:00 +34°C° 0 mm 2 mps 740 mmHg 42%
    19:00 +31°C° 0 mm 2 mps 740 mmHg 44%
    20:00 +29°C° 0 mm 2 mps 740 mmHg 45%
    21:00 +28°C° 0 mm 2 mps 741 mmHg 47%
    22:00 +27°C° 0 mm 2 mps 741 mmHg 49%
    23:00 +26°C° 0 mm 2 mps 741 mmHg 51%
    Show more